Total_Precipitation_Accumulation
2.61 3.27 4.53 4.37 3.73 3.08 2.88 3.01 3.08 2.87 2.78 2.79 2.84 2.82 2.86 2.93 3.04 3.04 2.85 2.92 2.94 2.97 2.81 2.57 2.45 2.37 2.42 2.47 2.39 2.15 1.96 1.86 2.00 2.13 2.25 2.40 2.59 2.78 2.93 3.10 3.02 2.33 2.19
2.04 2.94 4.13 3.97 3.33 2.65 2.66 2.66 2.80 2.67 2.56 2.64 2.80 2.68 2.53 2.61 2.80 2.84 2.73 2.86 2.87 2.89 2.71 2.53 2.31 2.08 2.07 2.09 2.15 1.99 1.84 2.05 2.38 2.60 2.88 2.95 3.02 3.03 3.04 3.11 3.17 2.51 2.25
1.71 2.33 3.18 3.52 2.91 2.54 2.49 2.39 2.50 2.46 2.39 2.61 2.79 2.69 2.49 2.47 2.74 2.84 2.81 2.88 3.03 2.95 2.58 2.41 2.16 1.86 1.85 1.89 1.87 1.88 1.97 2.27 2.83 3.25 3.34 2.92 2.54 2.84 2.91 3.01 2.90 2.34 2.18
1.45 1.79 2.35 2.81 2.46 2.28 2.22 2.29 2.37 2.35 2.32 2.47 2.55 2.64 2.60 2.55 2.78 2.96 2.88 2.99 3.15 2.85 2.54 2.31 2.05 1.74 1.64 1.68 1.77 1.88 2.09 2.48 2.95 3.44 3.14 2.58 2.16 2.39 2.54 2.47 2.37 2.15 2.03
1.38 1.61 2.05 2.24 2.18 2.13 2.12 2.30 2.41 2.41 2.33 2.41 2.54 2.65 2.73 2.81 2.87 3.02 2.98 3.11 3.15 3.02 2.67 2.30 2.03 1.73 1.63 1.63 1.65 1.80 2.13 2.63 3.05 3.10 2.46 2.41 2.52 2.44 2.29 2.19 2.22 2.02 1.76
1.43 1.66 1.90 2.01 1.98 2.08 2.08 2.31 2.47 2.54 2.42 2.43 2.59 2.58 2.67 2.89 3.07 3.20 3.13 3.16 3.17 3.01 2.62 2.29 2.02 1.76 1.64 1.63 1.74 1.86 2.26 2.69 2.71 2.20 1.95 2.05 1.93 2.21 2.14 2.12 2.04 1.80 1.51
1.35 1.71 1.86 1.99 2.02 2.20 2.37 2.53 2.58 2.53 2.40 2.39 2.43 2.32 2.44 2.88 3.18 3.32 3.33 3.29 3.22 3.01 2.63 2.30 2.03 1.81 1.70 1.73 1.84 1.88 2.16 2.51 2.21 1.87 1.74 1.91 1.68 1.85 2.03 2.05 1.99 1.71 1.43
1.22 1.60 1.83 2.11 2.16 2.26 2.47 2.78 2.84 2.53 2.44 2.39 2.42 2.29 2.36 2.63 3.02 3.22 3.43 3.48 3.30 3.03 2.55 2.27 2.04 1.83 1.78 1.84 1.93 1.92 2.05 2.04 1.67 1.53 1.51 1.53 1.47 1.62 1.90 1.81 1.75 1.59 1.37
1.28 1.43 1.72 2.08 2.25 2.35 2.49 2.73 2.76 2.71 2.64 2.59 2.58 2.41 2.44 2.63 2.86 3.13 3.47 3.42 3.26 3.06 2.65 2.31 2.08 1.91 1.90 1.88 1.90 1.91 2.03 2.12 1.72 1.61 1.45 1.36 1.30 1.48 1.80 1.68 1.57 1.55 1.46
1.56 1.44 1.56 1.85 2.25 2.37 2.38 2.61 2.80 2.76 2.74 2.75 2.77 2.65 2.82 2.96 2.97 3.07 3.36 3.50 3.29 3.03 2.70 2.52 2.28 2.07 2.05 1.90 1.90 2.05 2.20 2.04 1.71 1.68 1.51 1.13 1.22 1.54 1.87 1.87 1.77 1.77 1.64
1.79 1.78 1.81 1.76 1.86 2.08 2.18 2.46 3.04 3.04 2.94 2.94 3.09 3.19 3.36 3.63 3.56 3.59 3.52 3.71 3.62 3.34 3.22 3.03 2.80 2.45 2.27 2.02 2.13 2.26 2.07 1.91 1.99 1.88 1.54 1.18 1.31 1.88 2.13 2.14 2.01 1.99 1.95
1.91 1.96 2.19 1.99 1.88 1.98 2.03 2.83 3.68 3.54 3.37 3.38 3.52 3.58 3.84 3.97 4.25 3.72 4.06 4.39 4.47 4.36 4.26 4.03 3.86 3.21 2.47 2.05 2.22 2.29 1.98 1.93 2.05 1.80 1.45 1.35 1.52 2.05 2.36 2.20 2.13 2.10 2.05
2.21 2.06 2.03 2.16 2.27 2.31 2.46 2.84 3.31 3.72 3.76 3.73 3.66 3.62 3.86 3.78 3.94 3.94 4.40 5.21 5.33 4.80 4.46 4.60 4.38 3.46 2.94 2.97 2.74 2.43 2.33 2.07 2.07 1.78 1.65 1.64 1.75 2.17 2.49 2.37 2.29 2.21 2.01
2.80 2.75 2.77 2.76 2.80 2.85 2.72 2.72 2.85 3.10 3.17 3.16 3.26 3.33 3.45 3.81 3.96 4.12 4.50 4.61 4.71 4.52 4.76 4.70 4.53 3.93 3.55 3.21 2.90 2.86 2.81 2.50 2.33 2.23 2.23 2.09 2.10 2.36 2.67 2.66 2.46 2.38 2.28
3.30 3.49 4.10 4.05 3.56 3.32 3.12 2.97 2.67 2.90 2.74 2.53 2.73 3.03 3.13 3.35 3.68 3.89 3.81 3.87 3.64 3.82 4.18 4.36 3.97 4.02 3.81 3.67 3.44 3.18 3.16 2.88 2.57 2.47 2.51 2.60 2.49 2.46 2.71 2.86 2.77 2.76 2.82
4.03 4.08 4.36 4.90 4.32 3.72 3.25 3.10 2.88 2.69 2.77 2.64 2.76 2.70 2.96 3.15 3.26 3.37 3.33 3.48 3.35 3.47 3.64 3.66 3.67 4.03 3.99 3.80 3.43 3.14 3.02 3.00 2.78 2.57 2.71 2.76 2.71 2.47 2.58 2.99 3.25 3.28 3.37
4.57 4.74 4.85 5.18 4.92 4.50 3.96 3.46 3.02 2.80 2.64 2.71 2.84 2.63 2.71 2.91 3.00 3.03 3.11 3.11 3.16 3.08 3.16 3.19 3.29 3.63 3.70 3.57 3.31 2.99 2.87 2.90 2.88 2.79 2.67 2.75 2.71 2.71 2.65 2.80 3.11 3.26 3.56
5.23 5.50 5.54 5.29 5.35 5.07 4.51 4.00 3.57 3.33 3.09 2.89 2.74 2.61 2.42 2.51 2.56 2.71 2.68 2.66 2.73 2.70 2.79 3.02 3.07 3.32 3.57 3.63 3.52 3.07 3.00 2.97 2.81 2.88 2.76 2.70 3.02 2.78 2.97 3.12 3.12 3.09 3.52
6.38 6.83 6.61 5.96 5.62 5.22 4.77 4.36 4.22 4.04 3.69 3.29 3.07 2.87 2.69 2.47 2.41 2.52 2.62 2.71 2.40 2.49 2.65 2.53 2.92 3.18 3.49 3.54 3.05 3.03 2.80 2.67 2.65 2.47 2.63 2.53 2.74 2.91 3.17 3.21 3.22 3.10 3.50
6.68 7.39 7.29 6.63 5.86 5.24 4.97 4.67 4.60 4.31 3.90 3.44 3.27 3.14 2.82 2.66 2.44 2.55 2.43 2.31 2.11 2.34 2.69 2.86 3.34 3.37 3.31 3.29 2.72 2.89 2.67 2.31 2.39 2.49 2.41 2.50 2.55 2.40 2.80 3.20 3.44 2.94 3.31
5.71 6.27 6.16 5.55 5.10 4.66 4.24 3.77 3.77 3.64 3.43 3.23 3.03 2.83 2.80 2.72 2.55 2.62 2.41 2.51 2.23 2.33 2.48 2.60 2.94 3.14 3.11 3.08 3.34 3.37 2.89 2.40 2.38 2.31 2.24 2.50 2.50 2.51 2.95 3.44 3.60 3.44 3.02
4.21 4.43 3.93 3.75 3.77 3.49 3.34 3.34 3.29 3.17 2.89 2.76 2.77 2.97 2.64 2.61 2.51 2.35 2.55 2.33 2.28 2.55 2.60 2.73 2.98 3.08 3.07 3.11 3.28 3.60 3.33 3.25 2.74 2.03 2.26 2.41 2.48 2.74 2.80 2.94 3.29 3.60 3.20
2.99 2.97 2.74 2.70 3.02 3.06 3.14 3.22 3.23 3.21 3.04 2.85 2.67 2.82 2.52 2.36 2.39 2.48 2.42 2.46 2.62 2.33 2.59 2.80 2.84 3.03 3.15 3.03 2.97 3.34 3.34 3.32 2.89 2.26 2.11 2.20 2.42 2.72 2.75 2.86 2.69 2.95 3.18
2.09 2.21 2.46 2.55 2.70 2.67 2.84 2.82 2.74 2.53 2.42 2.35 2.32 2.49 2.60 2.39 2.29 2.30 2.41 2.74 2.86 2.58 2.80 2.39 2.55 2.88 3.07 2.97 2.97 2.75 2.64 2.78 3.00 2.88 2.47 2.22 2.30 2.41 2.51 2.54 2.67 2.94 3.12
1.78 2.03 2.36 2.47 2.51 2.44 2.45 2.59 2.79 2.70 2.71 2.59 2.51 2.77 2.84 2.87 2.61 2.29 2.33 2.63 2.81 2.80 2.90 2.72 2.93 2.74 2.65 2.65 2.73 2.76 2.73 2.59 2.40 2.64 2.71 2.54 2.36 2.06 2.02 2.11 2.27 2.45 2.53
1.69 1.80 2.03 2.18 2.37 2.40 2.45 2.57 2.62 2.67 2.84 2.81 2.76 2.64 2.55 2.65 2.59 2.38 2.38 2.72 2.76 2.77 2.94 2.82 2.80 2.64 2.63 2.64 2.55 2.47 2.76 2.74 2.56 2.64 2.44 2.40 2.30 1.84 1.73 1.82 1.90 2.01 2.17